Time,TemperatureF,DewpointF,PressureIn,WindDirection,WindDirectionDegrees,WindSpeedMPH,WindSpeedGustMPH,Humidity,HourlyPrecipIn,Conditions,Clouds,dailyrainin,SoftwareType,DateUTC
2014-07-25 00:13:00,80.0,71.0,29.96,North,0,0.0,1.0,74,0.00,,,0.00,,2014-07-25 05:13:00,
2014-07-25 00:42:00,79.0,70.0,29.97,North,0,0.0,1.0,75,0.00,,,0.00,,2014-07-25 05:42:00,
2014-07-25 01:42:00,79.0,70.0,29.96,North,0,0.0,2.0,74,0.00,,,0.00,,2014-07-25 06:42:00,
2014-07-25 02:33:00,78.0,69.0,29.96,North,0,0.0,1.0,75,0.00,,,0.00,,2014-07-25 07:33:00,
2014-07-25 03:12:00,77.0,70.0,29.96,North,0,0.0,0.0,79,0.00,,,0.00,,2014-07-25 08:12:00,
2014-07-25 03:32:00,76.0,70.0,29.95,North,0,0.0,0.0,81,0.00,,,0.00,,2014-07-25 08:32:00,
2014-07-25 03:42:00,76.0,70.0,29.95,North,0,0.0,0.0,81,0.00,,,0.00,,2014-07-25 08:42:00,
2014-07-25 04:12:00,74.0,68.0,29.96,North,0,0.0,0.0,83,0.00,,,0.00,,2014-07-25 09:12:00,
2014-07-25 04:43:00,74.0,69.0,29.96,North,0,0.0,0.0,85,0.00,,,0.00,,2014-07-25 09:43:00,
2014-07-25 05:13:00,73.0,69.0,29.96,North,0,0.0,0.0,86,0.00,,,0.00,,2014-07-25 10:13:00,
2014-07-25 06:13:00,73.0,69.0,29.97,North,0,0.0,0.0,88,0.00,,,0.00,,2014-07-25 11:13:00,
2014-07-25 06:22:00,73.0,69.0,29.97,North,0,0.0,0.0,88,0.00,,,0.00,,2014-07-25 11:22:00,
2014-07-25 06:43:00,73.0,69.0,29.98,North,0,0.0,0.0,88,0.00,,,0.00,,2014-07-25 11:43:00,
2014-07-25 07:12:00,72.0,69.0,29.97,North,0,0.0,0.0,89,0.00,,,0.00,,2014-07-25 12:12:00,
2014-07-25 07:42:00,73.0,69.0,29.97,SE,130,1.0,2.0,88,0.00,,,0.00,,2014-07-25 12:42:00,
2014-07-25 08:12:00,74.0,70.0,29.98,North,0,0.0,2.0,88,0.00,,,0.00,,2014-07-25 13:12:00,
2014-07-25 08:42:00,75.0,71.0,29.98,North,0,0.0,3.0,87,0.00,,,0.00,,2014-07-25 13:42:00,
2014-07-25 09:12:00,78.0,72.0,29.99,North,0,0.0,3.0,83,0.00,,,0.00,,2014-07-25 14:12:00,
2014-07-25 09:43:00,81.0,73.0,30.00,SSW,205,1.0,6.0,77,0.00,,,0.00,,2014-07-25 14:43:00,
2014-07-25 10:12:00,84.0,73.0,29.99,SSW,210,2.0,7.0,70,0.00,,,0.00,,2014-07-25 15:12:00,
2014-07-25 11:43:00,89.0,73.0,29.99,SSW,212,3.0,7.0,60,0.00,,,0.00,,2014-07-25 16:43:00,
2014-07-25 12:43:00,92.0,72.0,29.97,SSW,195,2.0,6.0,53,0.00,,,0.00,,2014-07-25 17:43:00,
2014-07-25 13:12:00,93.0,72.0,29.96,South,187,3.0,7.0,50,0.00,,,0.00,,2014-07-25 18:12:00,
2014-07-25 13:42:00,93.0,73.0,29.95,South,190,2.0,8.0,52,0.00,,,0.00,,2014-07-25 18:42:00,
2014-07-25 14:12:00,94.0,72.0,29.95,SW,232,2.0,5.0,49,0.00,,,0.00,,2014-07-25 19:12:00,
2014-07-25 14:42:00,95.0,71.0,29.93,South,188,2.0,8.0,46,0.00,,,0.00,,2014-07-25 19:42:00,
2014-07-25 15:43:00,96.0,72.0,29.91,SE,139,3.0,10.0,46,0.00,,,0.00,,2014-07-25 20:43:00,
2014-07-25 17:03:00,96.0,71.0,29.89,SE,134,4.0,8.0,44,0.00,,,0.00,,2014-07-25 22:03:00,
2014-07-25 17:13:00,96.0,71.0,29.89,SE,134,4.0,8.0,44,0.00,,,0.00,,2014-07-25 22:13:00,
2014-07-25 17:43:00,95.0,70.0,29.89,SE,138,3.0,5.0,44,0.00,,,0.00,,2014-07-25 22:43:00,
2014-07-25 18:12:00,96.0,70.0,29.88,SSE,150,3.0,7.0,43,0.00,,,0.00,,2014-07-25 23:12:00,
2014-07-25 18:42:00,95.0,68.0,29.88,SE,133,3.0,7.0,42,0.00,,,0.00,,2014-07-25 23:42:00,